Preview of NWS' New Version of Forecast
This preview is not operational and should not be used for support decisions.

Regional Weather Roundup (RWR)

Issued by National Weather Service (NWS)

                            
000
ASUS42 KTBW 221115
RWRFL 
FLORIDA REGIONAL WEATHER ROUNDUP
NATIONAL WEATHER SERVICE TAMPA BAY RUSKIN FL
700 AM EDT MON APR 22 2019

NOTE: "FAIR" INDICATES FEW OR NO CLOUDS BELOW 12,000 FEET WITH NO
SIGNIFICANT WEATHER AND/OR OBSTRUCTIONS TO VISIBILITY.

FLZ001>010-012>015-112-114-115-221200-
PANHANDLE FLORIDA
  
CITY           SKY/WX    TMP DP  RH WIND       PRES   REMARKS
PENSACOLA      FAIR      53  51  93 NW3       30.18R                  
PENSACOLA NAS  FAIR      46  46 100 NW3       30.18R                  
MILTON NAS     FAIR      45  45 100 CALM      30.18R                  
CRESTVIEW      FAIR      42  40  92 CALM      30.19R                  
DUKE FIELD     FAIR      43  42  96 CALM      30.17R                  
VALPARAISO     FAIR      50  45  84 CALM      30.17R                  
PANAMA CITY    FAIR      47  45  93 CALM      30.17R                  
TYNDALL AFB    FAIR      50  48  92 CALM      30.18R                  
APALACHICOLA   FAIR      47  43  86 NE3       30.17R                  

STATION/POSITION SKY/WX   TEMP    WIND        PRES    WAVE   SWELL
                          AIR SEA DIR/SP/G            HT/PER HT/PER
                          (F)     (DEG/KT/KT) (MB)    (FT/S) (FT/S)
30.1N   87.6W                                 1022.2R   1
29.2N   88.2W                      90/  4/  6 1022.0R   1
PANAMA CITY BEAC           55 68   20/  6/  7 1022.0R
TOWER C          NOT AVBL

$$
FLZ011-016>038-118-127-128-134-139-239-221200-
NORTH FLORIDA
  
CITY           SKY/WX    TMP DP  RH WIND       PRES   REMARKS
MARIANNA       FAIR      50  47  89 CALM      30.17R                  
TALLAHASSEE    FAIR      44  43  96 CALM      30.17S                  
PERRY          FAIR      48  47  97 CALM      30.18S                  
LIVE OAK       CLEAR     45  45 100 CALM      30.18R                  
CROSS CITY     FAIR      45  44  97 CALM      30.18S                  
LAKE CITY      FAIR      46  45  93 CALM      30.18R                  
GAINESVILLE    FAIR      52  46  80 CALM      30.20R                  
PALATKA        FAIR     N/A N/A N/A CALM      30.18S                  
MAYPORT NAS    FAIR      56  50  80 W7        30.17R                  
JACKSONVILLE   FAIR      48  45  89 CALM      30.17R                  
JAX NAS        CLEAR     58  46  64 NW5       30.18R                  
JAX CECIL      CLEAR     41  39  93 CALM      30.18R                  
FERNANDINA BEA FAIR      51  45  78 NW3       30.18R                  
ST AUGUSTINE   FAIR      55  49  80 W6        30.18R                  
PALM COAST     CLEAR     48  46  93 CALM      30.18R                  

STATION/POSITION SKY/WX   TEMP    WIND        PRES    WAVE   SWELL
                          AIR SEA DIR/SP/G            HT/PER HT/PER
                          (F)     (DEG/KT/KT) (MB)    (FT/S) (FT/S)
SHELL POINT      NOT AVBL
KEATON BEACH               59     340/  4/  6 1022.1R
CEDAR KEY                  61     360/  4/  6 1021.5R
FERNANDINA                 58 69  260/  2/  3 1022.5R
30.7N   81.3W                 67                N/A     2/ 8
MAYPORT                    56 69  290/  6/  7 1021.8R
31.4N   80.9W              66 67  100/  4/  6 1021.6R   2/ 8   2/ 8
ST AUGUSTINE               58 72  290/  9/ 11 1021.8R

$$
FLZ040-043>046-052-053-057-058-063-144-221200-
INTERIOR CENTRAL FLORIDA
  
CITY           SKY/WX    TMP DP  RH WIND       PRES   REMARKS
OCALA          FAIR      47  46  97 CALM      30.19R                  
LEESBURG       FAIR      55  48  77 N3        30.18R                  
SANFORD        FAIR      55  48  77 NW5       30.17R                  
ORLANDO EXEC   FAIR      59  48  67 CALM      30.18R                  
ORLANDO INTL   FAIR      56  49  77 CALM      30.18R                  
KISSIMMEE      FAIR      53  51  93 CALM      30.19R                  
WINTER HAVEN   FAIR      58  50  75 CALM      30.19R                  
LAKELAND       CLEAR     52  48  87 CALM      30.18R                  
BARTOW         FAIR      50  48  93 CALM      30.17R                  
SEBRING        FAIR      53  51  92 N6        30.17R                  
OKEECHOBEE     FAIR      50  48  93 CALM      30.16R                  

$$
FLZ041-047-054-059-064-141-147-221200-
EAST CENTRAL FLORIDA
  
CITY           SKY/WX    TMP DP  RH WIND       PRES   REMARKS
ORMOND BEACH   CLEAR     52  50  93 W3        30.17                   
DAYTONA BEACH  FAIR      54  50  86 CALM      30.17R                  
DELAND         FAIR      50  48  93 CALM      30.17R                  
NEW SMYRNA BEA CLEAR     52  48  87 CALM      30.18                   
JFK SPACE CTR  FAIR      53  50  90 NW3       30.16R                  
TITUSVILLE     CLEAR     52  50  93 S5        30.17                   
CAPE CANAVERAL FAIR      61  53  76 NW6       30.15R                  
PATRICK AFB    FAIR      65  54  69 NW12      30.16R                  
MELBOURNE      FAIR      56  49  77 NW6       30.16R                  
VERO BEACH     FAIR      56  51  84 NW3       30.16R                  
FT PIERCE      FAIR      52  48  86 CALM      30.15R                  
STUART         PTCLDY    63  57  82 CALM      30.15R                  

STATION/POSITION SKY/WX   TEMP    WIND        PRES    WAVE   SWELL
                          AIR SEA DIR/SP/G            HT/PER HT/PER
                          (F)     (DEG/KT/KT) (MB)    (FT/S) (FT/S)
28.5N   80.2W              70     310/ 12/ 14 1021.6R   3/ 8   2/ 8
28.9N   78.5W              72 78  350/ 10/ 16 1020.9R   4/ 9   3/ 9
TRIDENT PIER               65 75  320/  4/  6 1022.5R
28.4N   80.5W                 75                N/A     1/ 8
27.5N   80.2W                 74                N/A     2/ 8

$$
FLZ050-056-061-142-242-148-248-149-249-151-251-155-255-
160-260-221200-
WEST CENTRAL FLORIDA
  
CITY           SKY/WX    TMP DP  RH WIND       PRES   REMARKS
CRYSTAL RIVER  FAIR      45  45 100 CALM      30.19R                  
INVERNESS      FAIR      46  46 100 CALM      30.19R                  
BROOKSVILLE    FAIR      47  45  93 S3        30.19R                  
CLEARWATER AIR FAIR      57  48  72 CALM      30.18R                  
ST PETE CLEARW FAIR      59  49  69 E3        30.18R                  
TAMPA INTL     FAIR      61  48  62 CALM      30.19R                  
PLANT CITY     FAIR      52  50  93 CALM      30.20R                  
MACDILL AFB    FAIR      53  47  82 E3        30.17R                  
PETER O KNIGHT CLOUDY    59  52  77 E6        30.19R                  
ST PETERSBURG  FAIR      57  50  77 E13       30.16S                  
SARASOTA       FAIR      57  48  72 NE6       30.15R                  
VENICE         FAIR      57  50  77 NE9       30.17R                  

STATION/POSITION SKY/WX   TEMP    WIND        PRES    WAVE   SWELL
                          AIR SEA DIR/SP/G            HT/PER HT/PER
                          (F)     (DEG/KT/KT) (MB)    (FT/S) (FT/S)
27.3N   84.2W                 74                N/A     2/ 7
CLEARWATER BEACH           62 71   90/  5/  7 1021.9R
MIDDLE TAMPA BAY           66      80/ 13/ 14 1021.7R
VENICE                     59 75   40/  8/ 10 1021.2R

$$
FLZ066-069-070-075>078-162-262-165-265-221200-
SOUTHWEST FLORIDA AND KEYS
  
CITY           SKY/WX    TMP DP  RH WIND       PRES   REMARKS
PUNTA GORDA    FAIR      52  47  83 NE5       30.17R                  
FT MYERS       FAIR      58  52  80 NE8       30.14R                  
SOUTHWEST INTL FAIR      56  51  84 NE7       30.15R                  
NAPLES         FAIR      59  57  93 NE6       30.13R                  
MARCO ISLAND   FAIR      58  53  84 NE7       30.14R                  
IMMOKALEE      FAIR      52  50  93 CALM      30.14R                  
MARATHON       FAIR      70  58  65 NE3       30.12R                  
KEY WEST NAS   FAIR      70  57  63 CALM      30.12R                  
KEY WEST INTL  FAIR      68  58  70 NE5       30.12R                  

STATION/POSITION SKY/WX   TEMP    WIND        PRES    WAVE   SWELL
                          AIR SEA DIR/SP/G            HT/PER HT/PER
                          (F)     (DEG/KT/KT) (MB)    (FT/S) (FT/S)
NAPLES                     62 74   70/  5/  7 1020.3R
DRY TORTUGAS               72      50/ 10/ 11 1019.9R
SAND KEY                   72                 1019.7R
SOMBRERO KEY               72                 1019.3R

$$
FLZ067-068-071>074-168-172>174-221200-
SOUTHEAST FLORIDA 
  
CITY           SKY/WX    TMP DP  RH WIND       PRES   REMARKS
W PALM BEACH   MOCLDY    63  47  55 CALM      30.14R                  
BOCA RATON     PTCLDY    68  55  64 NE5       30.14                   
FT LAUDER-EXEC FAIR      68  55  63 N3        30.13R                  
FT LAUDERDALE  MOCLDY    69  55  60 N5        30.12R                  
POMPANO BEACH  MOCLDY    71  53  52 NE6       30.13R                  
PEMBROKE PINES FAIR      66  56  70 NE6       30.14R                  
OPA LOCKA      MOCLDY    68  59  73 NE6       30.13R                  
MIAMI          MOCLDY    70  59  68 N5        30.13R                  
WEST KENDALL   MOCLDY    64  61  90 CALM      30.12R                  
HOMESTEAD      MOCLDY    66  61  81 CALM      30.11R                  

STATION/POSITION SKY/WX   TEMP    WIND        PRES    WAVE   SWELL
                          AIR SEA DIR/SP/G            HT/PER HT/PER
                          (F)     (DEG/KT/KT) (MB)    (FT/S) (FT/S)
PORT EVERGLADES            73      70/  7/ 12 1020.0
VIRGINIA KEY               73 79   30/  6/  9 1019.3R
LAKE WORTH                 72 77   50/  5/  7 1021.6R
SETTLEMENT POINT           71      30/  7/  9 1020.8R

$$